Location: Bachte
(50.9977°N, 3.5484°E)
Time: 08:09:40
(UTC+00:00)

Daily predictions for brighter satellites

Satellite Brightness Start Highest point End
(mag) Time Altitude Azimuth Time Altitude Azimuth Time Altitude Azimuth
Cosmos 2026 Rocket 4.1 16:06:04 10° N 16:12:12 60° ENE 16:18:23 10° SSE
Meteor 2-3 Rocket 3.7 16:06:40 10° NNW 16:12:19 84° ENE 16:17:55 10° SSE
JB-3 4.1 16:11:35 10° NNE 16:15:17 68° ESE 16:18:55 10° S
Cosmos 1464 Rocket 4.1 16:11:24 10° S 16:17:36 87° W 16:23:47 10° N
Cosmos 2228 4.0 16:15:34 10° SE 16:19:07 27° E 16:22:42 10° NNE
Cosmos 405 Rocket 3.6 16:16:58 10° NNE 16:19:33 21° ENE 16:22:06 10° ESE
CBERS-1 4.0 16:16:41 10° SSE 16:21:46 68° ENE 16:26:52 10° N
Cosmos 1626 Rocket 4.4 16:19:27 10° N 16:23:15 28° ENE 16:26:59 10° SE
Cosmos 1892 Rocket 3.5 16:20:09 10° N 16:24:37 77° ENE 16:29:04 10° SSE
Thor Agena Rocket 3.6 16:21:40 10° SE 16:26:48 58° ENE 16:31:53 10° N
Cosmos 1356 Rocket 3.9 16:27:38 10° SSE 16:31:22 38° E 16:35:10 10° NNE
ARIANE 6 FM1 Upper Stage 2.8 16:27:33 10° NW 16:31:31 73° SW 16:35:31 10° SE
Cosmos 158 Rocket 4.2 16:27:02 10° NNW 16:32:07 72° WSW 16:37:02 10° SSE
Cosmos 1092 Rocket 3.9 16:26:11 10° N 16:32:23 73° ENE 16:38:30 10° SSE
Cosmos 292 Rocket 3.8 16:29:16 10° SSW 16:34:02 71° ESE 16:38:50 10° NNE
CZ-4C R/B 3.2 16:28:40 10° NW 16:34:34 41° NNE 16:42:00 10° E
Iridium 45 4.1 16:31:29 10° S 16:34:37 73° E 16:37:48 10° N
Cosmos 968 Rocket 4.3 16:30:08 10° SW 16:35:13 52° WNW 16:40:21 10° NNE
BlueWalker 3 1.7 16:32:48 10° WNW 16:36:26 73° NNE 16:40:04 10° E
Cosmos 1315 Rocket 3.1 16:33:03 10° SSE 16:36:41 43° E 16:40:21 10° NNE
Cosmos 332 Rocket 4.4 16:36:12 10° SW 16:40:57 57° WNW 16:45:42 10° NNE
Cosmos 2263 Rocket 3.7 16:37:33 10° N 16:41:10 17° NNE 16:44:06 12° ENE
Cosmos 1484 Rocket 2.8 16:38:21 10° S 16:41:51 71° WSW 16:45:24 10° NNW
Cosmos 1544 Rocket 4.5 16:38:39 10° SSE 16:42:23 28° E 16:46:09 10° NNE
NOSS 3-2 (A) 4.0 16:38:16 10° S 16:42:35 30° ESE 16:47:01 12° ENE
Cosmos 2034 Rocket 4.2 16:37:37 10° S 16:43:56 83° W 16:50:21 10° N
SJ-12 4.1 16:43:22 10° SE 16:46:54 39° ENE 16:50:27 10° N
IRS-P3 4.5 16:42:02 10° SE 16:47:00 41° ENE 16:51:59 10° N
Cosmos 2227 Rocket 3.3 16:42:31 10° NNW 16:47:02 24° NE 16:51:16 11° E
SAR-Lupe-4 3.9 16:43:47 10° SE 16:47:09 42° ENE 16:50:33 10° N
Intercosmos 24 4.0 16:44:58 10° N 16:49:19 52° ENE 16:52:51 10° SSE
Cosmos 1733 4.1 16:52:20 11° ESE 16:52:20 11° ESE 16:52:32 10° SE
SAR-Lupe-1 4.4 16:49:13 10° SE 16:52:38 43° ENE 16:56:05 10° N
USA 290 3.6 16:50:47 10° N 16:53:19 20° NE 16:54:36 16° E
Cosmos 2369 Rocket 3.0 16:48:12 10° SW 16:53:39 48° NW 16:59:09 10° NNE
BREEZE M DEB (TANK) 4.2 16:37:45 10° W 16:54:36 71° SSW 16:58:51 10° ESE
SL-16 R/B 2.6 16:50:02 10° NNE 16:56:20 85° WNW 17:02:32 10° SSW
CORIOLIS 4.1 16:51:14 10° SSE 16:56:34 83° ENE 17:01:56 10° NNW
SAR-Lupe-5 4.5 16:54:08 10° NNE 16:57:01 68° ESE 17:00:03 10° S
Cosmos 2151 3.6 16:54:58 10° N 16:58:40 31° ENE 17:02:23 10° SE
CZ-2D R/B 2.8 16:55:52 10° SSE 16:58:55 49° ENE 17:01:59 10° N
Cosmos 1867 4.3 16:54:31 10° NNW 16:59:29 34° NNE 17:03:27 15° E
Cosmos 2278 Rocket 4.4 16:57:27 10° WNW 17:00:32 15° NNW 17:03:37 10° N
Cosmos 1602 Rocket 4.1 16:56:30 10° N 17:00:35 35° ENE 17:04:37 10° SE
Cosmos 1455 Rocket 3.5 16:57:08 10° SSW 17:01:24 64° WNW 17:05:45 10° N
Meteor 1-28 Rocket 3.0 16:58:25 10° N 17:01:47 75° WNW 17:05:07 10° SSW
Lacrosse 5 rocket 1.3 17:00:51 10° SW 17:04:31 55° SE 17:06:43 22° ENE
Cosmos 1782 3.0 17:01:27 10° SSE 17:04:48 37° E 17:07:26 15° NNE
Cosmos 1743 2.8 17:04:08 10° N 17:07:12 36° ENE 17:10:15 10° SE
Cosmos 1570 Rocket 4.0 17:02:24 10° NNW 17:07:47 80° ENE 17:13:06 10° SSE
Cosmos 2266 Rocket 4.2 17:02:54 10° N 17:08:52 46° ENE 17:14:43 10° SE
Cosmos 1943 Rocket 4.4 17:07:47 10° NW 17:10:10 13° NNW 17:12:34 10° N
Cosmos 1697 Rocket 4.2 17:07:44 10° SE 17:10:56 16° E 17:11:02 16° E
NOSS 2-2 (C) 2.8 17:09:48 10° SSW 17:12:59 54° SE 17:14:14 29° ENE
COSMO-SKYMED 1 3.9 17:19:06 19° ESE 17:19:06 19° ESE 17:21:23 10° SE
YAOGAN 1 3.2 17:15:01 10° SE 17:18:46 31° ENE 17:22:33 10° N
SMAP 3.5 17:14:58 10° S 17:19:37 67° WSW 17:24:16 10° NNW
IRIDIUM 106 4.4 17:14:34 10° N 17:19:43 56° E 17:24:50 10° SSE
Cosmos 836 Rocket 4.5 17:15:51 10° NNW 17:21:06 90° NE 17:26:22 10° SSE
PSLV R/B 4.1 17:21:32 21° ESE 17:23:14 30° ENE 17:26:46 10° N
Cosmos 1607 3.9 17:17:23 10° NW 17:23:35 64° NE 17:29:49 10° SE
GEOS 3 Rocket 4.0 17:20:08 15° NE 17:24:31 63° NW 17:29:49 10° WSW
Cosmos 1486 Rocket 4.4 17:19:47 10° S 17:24:37 41° ESE 17:27:28 22° NE
BREEZE-M DEB (TANK) 3.4 17:22:05 10° W 17:25:03 76° S 17:30:10 20° E
ERS-1 4.4 17:20:11 10° SSE 17:25:14 90° NE 17:30:16 10° NNW
Landsat 7 3.9 17:21:46 10° S 17:26:25 75° WSW 17:31:06 10° NNW
Lacrosse 4 Rocket 1.8 17:22:25 10° SW 17:26:27 58° NW 17:29:11 19° NNE
ATLAS CENTAUR R/B 0.6 17:24:00 10° NW 17:27:16 60° NE 17:28:21 36° ESE
Meteor 1-25 Rocket 4.4 17:22:58 10° N 17:28:39 50° ENE 17:34:16 10° SSE
SL-19 R/B 4.5 17:24:28 10° SE 17:29:29 43° ENE 17:34:44 10° N
NOSS 3-3 (A) 4.5 17:22:51 10° NW 17:30:02 81° NE 17:38:39 10° SE
Cosmos 724 4.3 17:26:59 10° NW 17:33:06 71° NE 17:39:01 10° SE
Cosmos 1825 Rocket 3.9 17:31:25 10° N 17:35:33 39° ENE 17:39:38 10° SE
Cosmos 1758 Rocket 3.7 17:31:27 10° NNW 17:35:47 72° W 17:40:02 10° S
AQUARIUS 4.2 17:31:52 10° S 17:36:16 77° WSW 17:40:42 10° NNW
SPOT 1/Viking Rocket 3.5 17:31:18 10° SSE 17:36:27 67° ENE 17:41:38 10° N
MOS 1 Rocket 3.4 17:33:07 10° SSE 17:37:53 84° WSW 17:43:00 10° NNW
Cosmos 2208 Rocket 4.0 17:33:55 10° NNW 17:39:06 80° WSW 17:44:16 10° SSE
CZ-4 R/B 4.2 17:35:11 10° SSE 17:39:06 71° ENE 17:43:04 10° N
Meteor 2-9 4.5 17:33:57 10° N 17:39:24 73° ENE 17:44:45 10° SSE
NOAA 6 4.4 17:34:57 10° SE 17:39:42 40° ENE 17:44:28 10° N
Cosmos 2098 Rocket 2.7 17:36:20 10° S 17:40:06 82° E 17:44:38 10° N
Cosmos 2084 3.9 17:36:07 10° WSW 17:40:15 53° NW 17:42:11 28° NNE
Cosmos 2084 Rocket 3.6 17:36:12 10° NW 17:40:18 47° NE 17:41:10 40° ENE
ARIANE 5 R/B 3.1 17:35:31 10° S 17:40:28 58° WSW 17:45:32 10° NNW
CZ-2D R/B 3.4 17:36:38 10° SSE 17:40:47 60° ENE 17:44:55 10° N
Cosmos 2297 Rocket 2.1 17:35:27 10° NNW 17:41:10 83° ENE 17:46:50 10° SSE
Cosmos 773 Rocket 4.1 17:37:31 10° NNW 17:42:44 77° WSW 17:47:56 10° SSE
UNK 4.4 17:39:06 10° N 17:43:37 55° WNW 17:48:05 10° SSW
CENTAUR R/B 2.9 17:38:19 10° WSW 17:44:07 64° NW 17:49:09 21° NE
USA 215 3.3 17:45:59 29° E 17:49:27 62° NNE 17:55:55 10° WNW
Cosmos 1655 Rocket 4.1 17:43:22 10° N 17:49:29 50° ENE 17:55:30 10° SSE
SJ-7 4.1 17:49:28 56° ENE 17:49:33 56° ENE 17:53:14 10° N
Meteor 1-5 Rocket 4.2 17:45:53 10° N 17:51:01 48° ENE 17:56:12 10° SE
Cosmos 2219 4.2 17:46:40 10° NNW 17:51:24 27° NE 17:51:24 27° NE
Cosmos 1900 4.4 17:48:11 10° NW 17:53:14 59° NE 17:54:49 40° ESE
Cosmos 1656 3.6 17:50:03 10° SSW 17:55:39 82° ESE 17:58:48 28° NNE
Cosmos 1241 Rocket 4.4 17:53:54 10° SSW 18:00:17 82° SE 18:03:23 32° NE
USA 281 4.2 18:06:13 27° NE 18:06:13 27° NE 18:11:20 10° NNW
Okean 1-7 Rocket 3.6 18:03:31 10° NNW 18:07:58 77° W 18:12:19 10° S
NOSS 2-2 (D) 3.5 18:06:44 10° SW 18:09:17 50° WSW 18:09:17 50° WSW
Cosmos 1606 Rocket 3.4 18:06:38 10° S 18:10:49 69° ESE 18:10:49 69° ESE
NOSS 2-2 (E) 3.8 18:10:29 10° SW 18:12:46 41° SW 18:12:46 41° SW
BlueWalker 3 2.9 18:10:28 10° WNW 18:13:52 37° SSW 18:14:19 36° SSW
Cosmos 783 Rocket 4.5 18:08:33 10° NNW 18:13:53 87° WSW 18:19:00 11° SSE
Resurs 1-3 3.5 18:11:26 10° SSE 18:15:45 81° WSW 18:20:04 10° NNW
Cosmos 1844 Rocket 4.5 18:16:41 10° NNW 18:19:01 17° NNE 18:19:01 17° NNE
Cosmos 2360 4.1 18:16:26 10° SSW 18:22:10 87° WNW 18:24:05 44° NNE
CZ-4C R/B 2.9 18:16:43 10° NW 18:23:32 83° SW 18:29:51 20° SE
Meteor 2-20 4.4 18:17:49 10° S 18:23:51 60° E 18:25:00 52° NE
SKYMED 2 3.8 18:23:49 44° N 18:25:02 66° WNW 18:29:21 10° SSW
Cosmos 2263 Rocket 2.4 18:20:50 10° NNW 18:25:49 52° NNE 18:25:49 52° NNE
USA 290 4.0 18:24:46 10° NW 18:27:24 32° W 18:27:24 32° W
NOSS 3-2 (C) 3.0 18:24:20 10° SSW 18:29:21 66° SE 18:29:21 66° SE
Cosmos 1503 Rocket 3.9 18:24:16 10° SSW 18:29:32 89° ESE 18:30:10 70° NNE
Cosmos 1933 4.3 18:26:03 10° SSW 18:28:34 39° SSW 18:28:34 39° SSW
Cosmos 2227 Rocket 2.1 18:26:09 10° NNW 18:31:51 89° ENE 18:33:08 56° SSE
IRAS Rocket 4.5 18:27:20 10° S 18:32:48 67° WSW 18:38:17 10° NNW
NOSS 3-2 (A) 3.5 18:27:40 10° WSW 18:32:49 63° NW 18:34:23 46° NNE
Resurs 01 Rocket 4.0 18:38:00 13° N 18:38:00 13° N 18:38:32 10° N
Cosmos 1354 Rocket 4.1 18:29:47 10° SSW 18:34:18 63° SSE 18:34:18 63° SSE
Cosmos 1726 Rocket 4.4 18:34:20 10° S 18:37:32 44° SSW 18:37:32 44° SSW
Cosmos 2369 Rocket 4.4 18:35:44 10° WNW 18:39:07 16° NNW 18:41:55 12° N
Lacrosse 5 rocket 2.9 18:38:06 10° W 18:40:19 29° WNW 18:40:19 29° WNW
Cosmos 1867 3.7 18:38:03 10° NW 18:43:31 71° SW 18:44:08 64° S
COSMO-SKYMED 1 4.0 18:55:26 31° SW 18:55:26 31° SW 18:57:51 10° SW
Cosmos 1697 Rocket 3.0 18:48:24 10° SSW 18:52:47 57° SSW 18:52:47 57° SSW
YAOGAN 1 4.2 18:50:45 10° SSW 18:54:35 33° W 18:58:28 10° NNW
ATLAS CENTAUR R/B 4.1 18:59:52 10° W 19:00:41 13° W 19:00:41 13° W
Lacrosse 4 Rocket 4.0 19:02:54 10° WNW 19:04:41 14° NW 19:04:41 14° NW
USA 215 3.5 19:33:20 63° W 19:33:20 63° W 19:39:01 10° WNW
CENTAUR R/B 3.9 19:30:12 10° WNW 19:36:08 34° N 19:36:15 34° N
USA 281 4.5 19:53:06 33° NNW 19:53:06 33° NNW 19:56:26 10° NNW
Cosmos 2263 Rocket 4.3 20:05:07 10° NW 20:07:31 22° WNW 20:07:31 22° WNW
